owner,sensor,date,latitude,longitude,vertical_datum,wind_speed,wind_to_direction,wind_speed_of_gust,qcFlag 
TCOON,ioos:station:TCOON:068:1,2017-12-01T00:00:00Z,27.2970,-97.4049,0.0,5.4,78.0,5.9,'11111222,11111222,11111222' 
TCOON,ioos:station:TCOON:068:1,2017-12-01T00:06:00Z,27.2970,-97.4049,0.0,5.3,78.0,6.2,'11111222,11111222,11111222' 
TCOON,ioos:station:TCOON:068:1,2017-12-01T00:12:00Z,27.2970,-97.4049,0.0,4.5,72.0,5.9,'11111222,11111222,11111222' 
TCOON,ioos:station:TCOON:068:1,2017-12-01T00:18:00Z,27.2970,-97.4049,0.0,4.5,72.0,5.9,'1111122,1111122,1111122' 
TCOON,ioos:station:TCOON:068:1,2017-12-01T00:24:00Z,27.2970,-97.4049,0.0,4.9,78.0,6.2,'11111222,11111222,11111222' 
TCOON,ioos:station:TCOON:068:1,2017-12-01T00:30:00Z,27.2970,-97.4049,0.0,5.5,79.0,6.2,'11111222,11111222,11111222' 
TCOON,ioos:station:TCOON:068:1,2017-12-01T00:36:00Z,27.2970,-97.4049,0.0,5.3,78.0,6.1,'11111222,11111222,11111222' 
TCOON,ioos:station:TCOON:068:1,2017-12-01T00:42:00Z,27.2970,-97.4049,0.0,5.6,76.0,6.5,'11111222,11111222,11111222' 
TCOON,ioos:station:TCOON:068:1,2017-12-01T00:48:00Z,27.2970,-97.4049,0.0,5.4,80.0,6.6,'11111222,11111222,11111222' 
TCOON,ioos:station:TCOON:068:1,2017-12-01T00:54:00Z,27.2970,-97.4049,0.0,4.8,77.0,5.6,'11111222,11111222,11111222' 
TCOON,ioos:station:TCOON:068:1,2017-12-01T01:00:00Z,27.2970,-97.4049,0.0,5.1,78.0,5.6,'11111222,11111222,11111222' 
TCOON,ioos:station:TCOON:068:1,2017-12-01T01:06:00Z,27.2970,-97.4049,0.0,4.8,81.0,5.3,'11111222,11111222,11111222' 
TCOON,ioos:station:TCOON:068:1,2017-12-01T01:12:00Z,27.2970,-97.4049,0.0,4.5,88.0,5.5,'11111222,11111222,11111222' 
TCOON,ioos:station:TCOON:068:1,2017-12-01T01:18:00Z,27.2970,-97.4049,0.0,4.5,88.0,5.5,'1111122,1111122,1111122' 
TCOON,ioos:station:TCOON:068:1,2017-12-01T01:24:00Z,27.2970,-97.4049,0.0,4.3,85.0,5.3,'11111222,11111222,11111222' 
TCOON,ioos:station:TCOON:068:1,2017-12-01T01:30:00Z,27.2970,-97.4049,0.0,4.1,84.0,4.6,'11111222,11111222,11111222' 
TCOON,ioos:station:TCOON:068:1,2017-12-01T01:36:00Z,27.2970,-97.4049,0.0,4.0,88.0,4.7,'11111222,11111222,11111222' 
TCOON,ioos:station:TCOON:068:1,2017-12-01T01:42:00Z,27.2970,-97.4049,0.0,3.6,89.0,4.4,'11111222,11111222,11111222' 
TCOON,ioos:station:TCOON:068:1,2017-12-01T01:48:00Z,27.2970,-97.4049,0.0,3.5,90.0,4.1,'11111222,11111222,11111222' 
TCOON,ioos:station:TCOON:068:1,2017-12-01T01:54:00Z,27.2970,-97.4049,0.0,3.7,87.0,4.4,'11111222,11111222,11111222' 
TCOON,ioos:station:TCOON:068:1,2017-12-01T02:00:00Z,27.2970,-97.4049,0.0,3.8,85.0,4.4,'11111222,11111222,11111222' 
TCOON,ioos:station:TCOON:068:1,2017-12-01T02:06:00Z,27.2970,-97.4049,0.0,3.2,85.0,4.1,'11111222,11111222,11111222' 
TCOON,ioos:station:TCOON:068:1,2017-12-01T02:12:00Z,27.2970,-97.4049,0.0,3.4,86.0,4.0,'11111222,11111222,11111222' 
TCOON,ioos:station:TCOON:068:1,2017-12-01T02:18:00Z,27.2970,-97.4049,0.0,3.4,86.0,4.0,'1111122,1111122,1111122' 
TCOON,ioos:station:TCOON:068:1,2017-12-01T02:24:00Z,27.2970,-97.4049,0.0,2.8,91.0,3.5,'11111222,11111222,11111222' 
TCOON,ioos:station:TCOON:068:1,2017-12-01T02:30:00Z,27.2970,-97.4049,0.0,2.9,93.0,3.4,'11111222,11111222,11111222' 
TCOON,ioos:station:TCOON:068:1,2017-12-01T02:36:00Z,27.2970,-97.4049,0.0,2.9,92.0,3.5,'11111222,11111222,11111222' 
TCOON,ioos:station:TCOON:068:1,2017-12-01T02:42:00Z,27.2970,-97.4049,0.0,3.0,90.0,3.4,'11111222,11111222,11111222' 
TCOON,ioos:station:TCOON:068:1,2017-12-01T02:48:00Z,27.2970,-97.4049,0.0,3.0,93.0,3.6,'11111222,11111222,11111222' 
TCOON,ioos:station:TCOON:068:1,2017-12-01T02:54:00Z,27.2970,-97.4049,0.0,3.6,89.0,3.9,'11111222,11111222,11111222' 
TCOON,ioos:station:TCOON:068:1,2017-12-01T03:00:00Z,27.2970,-97.4049,0.0,3.0,92.0,3.9,'11111222,11111222,11111222' 
TCOON,ioos:station:TCOON:068:1,2017-12-01T03:06:00Z,27.2970,-97.4049,0.0,3.0,92.0,3.6,'11111222,11111222,11111222' 
TCOON,ioos:station:TCOON:068:1,2017-12-01T03:12:00Z,27.2970,-97.4049,0.0,2.7,90.0,3.4,'11111222,11111222,11111222' 
TCOON,ioos:station:TCOON:068:1,2017-12-01T03:18:00Z,27.2970,-97.4049,0.0,2.7,90.0,3.4,'1111122,1111122,1111122' 
TCOON,ioos:station:TCOON:068:1,2017-12-01T03:24:00Z,27.2970,-97.4049,0.0,2.7,88.0,3.3,'11111222,11111222,11111222' 
TCOON,ioos:station:TCOON:068:1,2017-12-01T03:30:00Z,27.2970,-97.4049,0.0,2.5,96.0,3.1,'11111222,11111222,11111222' 
TCOON,ioos:station:TCOON:068:1,2017-12-01T03:36:00Z,27.2970,-97.4049,0.0,2.3,94.0,3.0,'11111222,11111222,11111222' 
TCOON,ioos:station:TCOON:068:1,2017-12-01T03:42:00Z,27.2970,-97.4049,0.0,2.5,87.0,3.1,'11111222,11111222,11111222' 
TCOON,ioos:station:TCOON:068:1,2017-12-01T03:48:00Z,27.2970,-97.4049,0.0,2.6,90.0,2.8,'11111222,11111222,11111222' 
TCOON,ioos:station:TCOON:068:1,2017-12-01T03:54:00Z,27.2970,-97.4049,0.0,2.8,91.0,3.2,'11111222,11111222,11111222' 
TCOON,ioos:station:TCOON:068:1,2017-12-01T04:00:00Z,27.2970,-97.4049,0.0,2.8,97.0,3.2,'11111222,11111222,11111222' 
TCOON,ioos:station:TCOON:068:1,2017-12-01T04:06:00Z,27.2970,-97.4049,0.0,2.6,95.0,3.0,'11111222,11111222,11111222' 
TCOON,ioos:station:TCOON:068:1,2017-12-01T04:12:00Z,27.2970,-97.4049,0.0,2.6,97.0,3.1,'11111222,11111222,11111222' 
TCOON,ioos:station:TCOON:068:1,2017-12-01T04:18:00Z,27.2970,-97.4049,0.0,2.6,97.0,3.1,'1111122,1111122,1111122' 
TCOON,ioos:station:TCOON:068:1,2017-12-01T04:24:00Z,27.2970,-97.4049,0.0,2.4,98.0,2.7,'11111222,11111222,11111222' 
TCOON,ioos:station:TCOON:068:1,2017-12-01T04:30:00Z,27.2970,-97.4049,0.0,2.3,101.0,2.8,'11111222,11111222,11111222' 
TCOON,ioos:station:TCOON:068:1,2017-12-01T04:36:00Z,27.2970,-97.4049,0.0,2.5,98.0,2.9,'11111222,11111222,11111222' 
TCOON,ioos:station:TCOON:068:1,2017-12-01T04:42:00Z,27.2970,-97.4049,0.0,2.1,100.0,2.7,'11111222,11111222,11111222' 
TCOON,ioos:station:TCOON:068:1,2017-12-01T04:48:00Z,27.2970,-97.4049,0.0,2.1,98.0,2.6,'11111222,11111222,11111222' 
TCOON,ioos:station:TCOON:068:1,2017-12-01T04:54:00Z,27.2970,-97.4049,0.0,2.2,100.0,2.8,'11111222,11111222,11111222' 
TCOON,ioos:station:TCOON:068:1,2017-12-01T05:00:00Z,27.2970,-97.4049,0.0,2.3,98.0,2.7,'11111222,11111222,11111222' 
TCOON,ioos:station:TCOON:068:1,2017-12-01T05:06:00Z,27.2970,-97.4049,0.0,2.2,100.0,2.8,'11111222,11111222,11111222' 
TCOON,ioos:station:TCOON:068:1,2017-12-01T05:12:00Z,27.2970,-97.4049,0.0,2.4,96.0,2.8,'11111222,11111222,11111222' 
TCOON,ioos:station:TCOON:068:1,2017-12-01T05:18:00Z,27.2970,-97.4049,0.0,2.4,96.0,2.8,'1111122,1111122,1111122' 
TCOON,ioos:station:TCOON:068:1,2017-12-01T05:24:00Z,27.2970,-97.4049,0.0,2.5,100.0,3.2,'11111222,11111222,11111222' 
TCOON,ioos:station:TCOON:068:1,2017-12-01T05:30:00Z,27.2970,-97.4049,0.0,2.3,103.0,3.1,'11111222,11111222,11111222' 
TCOON,ioos:station:TCOON:068:1,2017-12-01T05:36:00Z,27.2970,-97.4049,0.0,2.5,101.0,2.9,'11111222,11111222,11111222' 
TCOON,ioos:station:TCOON:068:1,2017-12-01T05:42:00Z,27.2970,-97.4049,0.0,2.4,102.0,3.1,'11111222,11111222,11111222' 
TCOON,ioos:station:TCOON:068:1,2017-12-01T05:48:00Z,27.2970,-97.4049,0.0,2.2,101.0,2.9,'11111222,11111222,11111222' 
TCOON,ioos:station:TCOON:068:1,2017-12-01T05:54:00Z,27.2970,-97.4049,0.0,2.1,106.0,2.9,'11111222,11111222,11111222' 
TCOON,ioos:station:TCOON:068:1,2017-12-01T06:00:00Z,27.2970,-97.4049,0.0,2.1,110.0,2.8,'11111222,11111222,11111222' 
TCOON,ioos:station:TCOON:068:1,2017-12-01T06:06:00Z,27.2970,-97.4049,0.0,2.0,108.0,2.7,'11111222,11111222,11111222' 
TCOON,ioos:station:TCOON:068:1,2017-12-01T06:12:00Z,27.2970,-97.4049,0.0,2.2,102.0,2.7,'11111222,11111222,11111222' 
TCOON,ioos:station:TCOON:068:1,2017-12-01T06:18:00Z,27.2970,-97.4049,0.0,2.2,102.0,2.7,'1111122,1111122,1111122' 
TCOON,ioos:station:TCOON:068:1,2017-12-01T06:24:00Z,27.2970,-97.4049,0.0,2.6,110.0,3.1,'11111222,11111222,11111222' 
TCOON,ioos:station:TCOON:068:1,2017-12-01T06:30:00Z,27.2970,-97.4049,0.0,2.6,107.0,3.0,'11111222,11111222,11111222' 
TCOON,ioos:station:TCOON:068:1,2017-12-01T06:36:00Z,27.2970,-97.4049,0.0,2.3,107.0,2.9,'11111222,11111222,11111222' 
TCOON,ioos:station:TCOON:068:1,2017-12-01T06:42:00Z,27.2970,-97.4049,0.0,2.2,101.0,2.8,'11111222,11111222,11111222' 
TCOON,ioos:station:TCOON:068:1,2017-12-01T06:48:00Z,27.2970,-97.4049,0.0,2.2,99.0,2.6,'11111222,11111222,11111222' 
TCOON,ioos:station:TCOON:068:1,2017-12-01T06:54:00Z,27.2970,-97.4049,0.0,2.2,99.0,2.7,'11111222,11111222,11111222' 
TCOON,ioos:station:TCOON:068:1,2017-12-01T07:00:00Z,27.2970,-97.4049,0.0,2.5,92.0,2.8,'11111222,11111222,11111222' 
TCOON,ioos:station:TCOON:068:1,2017-12-01T07:06:00Z,27.2970,-97.4049,0.0,2.2,94.0,2.7,'11111222,11111222,11111222' 
TCOON,ioos:station:TCOON:068:1,2017-12-01T07:12:00Z,27.2970,-97.4049,0.0,2.3,92.0,2.7,'11111222,11111222,11111222' 
TCOON,ioos:station:TCOON:068:1,2017-12-01T07:18:00Z,27.2970,-97.4049,0.0,2.3,92.0,2.7,'1111122,1111122,1111122' 
TCOON,ioos:station:TCOON:068:1,2017-12-01T07:24:00Z,27.2970,-97.4049,0.0,2.0,91.0,2.3,'11111222,11111222,11111222' 
TCOON,ioos:station:TCOON:068:1,2017-12-01T07:30:00Z,27.2970,-97.4049,0.0,1.8,82.0,2.2,'11111222,11111222,11111222' 
TCOON,ioos:station:TCOON:068:1,2017-12-01T07:36:00Z,27.2970,-97.4049,0.0,1.6,82.0,2.0,'11111222,11111222,11111222' 
TCOON,ioos:station:TCOON:068:1,2017-12-01T07:42:00Z,27.2970,-97.4049,0.0,1.5,64.0,2.0,'11111222,11111222,11111222' 
TCOON,ioos:station:TCOON:068:1,2017-12-01T07:48:00Z,27.2970,-97.4049,0.0,1.4,50.0,1.8,'11111222,11111222,11111222' 
TCOON,ioos:station:TCOON:068:1,2017-12-01T07:54:00Z,27.2970,-97.4049,0.0,1.5,40.0,1.8,'11111222,11111222,11111222' 
TCOON,ioos:station:TCOON:068:1,2017-12-01T08:00:00Z,27.2970,-97.4049,0.0,1.3,17.0,1.7,'11111222,11111222,11111222' 
TCOON,ioos:station:TCOON:068:1,2017-12-01T08:06:00Z,27.2970,-97.4049,0.0,1.2,352.0,1.4,'11111222,11111222,11111222' 
TCOON,ioos:station:TCOON:068:1,2017-12-01T08:12:00Z,27.2970,-97.4049,0.0,1.4,339.0,1.5,'11111222,11111222,11111222' 
TCOON,ioos:station:TCOON:068:1,2017-12-01T08:18:00Z,27.2970,-97.4049,0.0,1.4,339.0,1.5,'1111122,1111122,1111122' 
TCOON,ioos:station:TCOON:068:1,2017-12-01T08:24:00Z,27.2970,-97.4049,0.0,1.6,326.0,1.7,'11111222,11111222,11111222' 
TCOON,ioos:station:TCOON:068:1,2017-12-01T08:30:00Z,27.2970,-97.4049,0.0,1.8,332.0,2.0,'11111222,11111222,11111222' 
TCOON,ioos:station:TCOON:068:1,2017-12-01T08:36:00Z,27.2970,-97.4049,0.0,1.8,335.0,2.0,'11111222,11111222,11111222' 
TCOON,ioos:station:TCOON:068:1,2017-12-01T08:42:00Z,27.2970,-97.4049,0.0,2.0,340.0,2.2,'11111222,11111222,11111222' 
TCOON,ioos:station:TCOON:068:1,2017-12-01T08:48:00Z,27.2970,-97.4049,0.0,2.3,344.0,2.4,'11111222,11111222,11111222' 
TCOON,ioos:station:TCOON:068:1,2017-12-01T08:54:00Z,27.2970,-97.4049,0.0,2.2,338.0,2.4,'11111222,11111222,11111222' 
TCOON,ioos:station:TCOON:068:1,2017-12-01T09:00:00Z,27.2970,-97.4049,0.0,2.5,339.0,2.8,'11111222,11111222,11111222' 
TCOON,ioos:station:TCOON:068:1,2017-12-01T09:06:00Z,27.2970,-97.4049,0.0,2.6,342.0,2.8,'11111222,11111222,11111222' 
TCOON,ioos:station:TCOON:068:1,2017-12-01T09:12:00Z,27.2970,-97.4049,0.0,2.7,344.0,3.0,'11111222,11111222,11111222' 
TCOON,ioos:station:TCOON:068:1,2017-12-01T09:18:00Z,27.2970,-97.4049,0.0,2.7,344.0,3.0,'1111122,1111122,1111122' 
TCOON,ioos:station:TCOON:068:1,2017-12-01T09:24:00Z,27.2970,-97.4049,0.0,2.8,4.0,3.1,'11111222,11111222,11111222' 
TCOON,ioos:station:TCOON:068:1,2017-12-01T09:30:00Z,27.2970,-97.4049,0.0,2.8,3.0,3.2,'11111222,11111222,11111222' 
TCOON,ioos:station:TCOON:068:1,2017-12-01T09:36:00Z,27.2970,-97.4049,0.0,2.8,4.0,3.2,'11111222,11111222,11111222' 
TCOON,ioos:station:TCOON:068:1,2017-12-01T09:42:00Z,27.2970,-97.4049,0.0,3.0,3.0,3.3,'11111222,11111222,11111222' 
TCOON,ioos:station:TCOON:068:1,2017-12-01T09:48:00Z,27.2970,-97.4049,0.0,3.1,2.0,3.4,'11111222,11111222,11111222' 
TCOON,ioos:station:TCOON:068:1,2017-12-01T09:54:00Z,27.2970,-97.4049,0.0,2.7,359.0,3.3,'11111222,11111222,11111222' 
TCOON,ioos:station:TCOON:068:1,2017-12-01T10:00:00Z,27.2970,-97.4049,0.0,2.6,354.0,3.0,'11111222,11111222,11111222' 
TCOON,ioos:station:TCOON:068:1,2017-12-01T10:06:00Z,27.2970,-97.4049,0.0,2.8,346.0,3.1,'11111222,11111222,11111222' 
TCOON,ioos:station:TCOON:068:1,2017-12-01T10:12:00Z,27.2970,-97.4049,0.0,2.7,0.0,3.0,'11111222,11111222,11111222' 
TCOON,ioos:station:TCOON:068:1,2017-12-01T10:18:00Z,27.2970,-97.4049,0.0,2.7,0.0,3.0,'1111122,1114422,1111122' 
TCOON,ioos:station:TCOON:068:1,2017-12-01T10:24:00Z,27.2970,-97.4049,0.0,3.2,3.0,3.5,'11111222,11111222,11111222' 
TCOON,ioos:station:TCOON:068:1,2017-12-01T10:30:00Z,27.2970,-97.4049,0.0,3.0,4.0,3.4,'11111222,11111222,11111222' 
TCOON,ioos:station:TCOON:068:1,2017-12-01T10:36:00Z,27.2970,-97.4049,0.0,3.1,4.0,3.3,'11111222,11111222,11111222' 
TCOON,ioos:station:TCOON:068:1,2017-12-01T10:42:00Z,27.2970,-97.4049,0.0,3.5,3.0,3.8,'11111222,11111222,11111222' 
TCOON,ioos:station:TCOON:068:1,2017-12-01T10:48:00Z,27.2970,-97.4049,0.0,3.4,3.0,4.0,'11111222,11111222,11111222' 
TCOON,ioos:station:TCOON:068:1,2017-12-01T10:54:00Z,27.2970,-97.4049,0.0,3.1,4.0,3.7,'11111222,11111222,11111222' 
TCOON,ioos:station:TCOON:068:1,2017-12-01T11:00:00Z,27.2970,-97.4049,0.0,3.2,3.0,3.5,'11111222,11111222,11111222' 
TCOON,ioos:station:TCOON:068:1,2017-12-01T11:06:00Z,27.2970,-97.4049,0.0,3.0,2.0,3.4,'11111222,11111222,11111222' 
TCOON,ioos:station:TCOON:068:1,2017-12-01T11:12:00Z,27.2970,-97.4049,0.0,2.5,5.0,3.2,'11111222,11111222,11111222' 
TCOON,ioos:station:TCOON:068:1,2017-12-01T11:18:00Z,27.2970,-97.4049,0.0,2.5,5.0,3.2,'1111122,1111122,1111122' 
TCOON,ioos:station:TCOON:068:1,2017-12-01T11:24:00Z,27.2970,-97.4049,0.0,2.7,358.0,3.2,'11111222,11111222,11111222' 
TCOON,ioos:station:TCOON:068:1,2017-12-01T11:30:00Z,27.2970,-97.4049,0.0,2.6,347.0,2.8,'11111222,11111222,11111222' 
TCOON,ioos:station:TCOON:068:1,2017-12-01T11:36:00Z,27.2970,-97.4049,0.0,3.1,352.0,3.3,'11111222,11111222,11111222' 
TCOON,ioos:station:TCOON:068:1,2017-12-01T11:42:00Z,27.2970,-97.4049,0.0,3.1,358.0,3.5,'11111222,11111222,11111222' 
TCOON,ioos:station:TCOON:068:1,2017-12-01T11:48:00Z,27.2970,-97.4049,0.0,3.0,3.0,3.5,'11111222,11111222,11111222' 
TCOON,ioos:station:TCOON:068:1,2017-12-01T11:54:00Z,27.2970,-97.4049,0.0,3.4,8.0,3.7,'11111222,11111222,11111222' 
TCOON,ioos:station:TCOON:068:1,2017-12-01T12:00:00Z,27.2970,-97.4049,0.0,3.2,8.0,3.5,'11111222,11111222,11111222' 
TCOON,ioos:station:TCOON:068:1,2017-12-01T12:06:00Z,27.2970,-97.4049,0.0,3.2,5.0,3.4,'11111222,11111222,11111222' 
TCOON,ioos:station:TCOON:068:1,2017-12-01T12:12:00Z,27.2970,-97.4049,0.0,3.2,8.0,3.5,'11111222,11111222,11111222' 
TCOON,ioos:station:TCOON:068:1,2017-12-01T12:18:00Z,27.2970,-97.4049,0.0,3.2,8.0,3.5,'1111122,1111122,1111122' 
TCOON,ioos:station:TCOON:068:1,2017-12-01T12:24:00Z,27.2970,-97.4049,0.0,2.9,9.0,3.2,'11111222,11111222,11111222' 
TCOON,ioos:station:TCOON:068:1,2017-12-01T12:30:00Z,27.2970,-97.4049,0.0,2.8,6.0,3.2,'11111222,11111222,11111222' 
TCOON,ioos:station:TCOON:068:1,2017-12-01T12:36:00Z,27.2970,-97.4049,0.0,2.9,8.0,3.1,'11111222,11111222,11111222' 
TCOON,ioos:station:TCOON:068:1,2017-12-01T12:42:00Z,27.2970,-97.4049,0.0,2.8,9.0,3.2,'11111222,11111222,11111222' 
TCOON,ioos:station:TCOON:068:1,2017-12-01T12:48:00Z,27.2970,-97.4049,0.0,3.1,14.0,3.4,'11111222,11111222,11111222' 
TCOON,ioos:station:TCOON:068:1,2017-12-01T12:54:00Z,27.2970,-97.4049,0.0,2.6,15.0,3.5,'11111222,11111222,11111222' 
TCOON,ioos:station:TCOON:068:1,2017-12-01T13:00:00Z,27.2970,-97.4049,0.0,2.2,17.0,2.9,'11111222,11111222,11111222' 
TCOON,ioos:station:TCOON:068:1,2017-12-01T13:06:00Z,27.2970,-97.4049,0.0,2.2,23.0,2.5,'11111222,11111222,11111222' 
TCOON,ioos:station:TCOON:068:1,2017-12-01T13:12:00Z,27.2970,-97.4049,0.0,2.1,18.0,2.9,'11111222,11111222,11111222' 
TCOON,ioos:station:TCOON:068:1,2017-12-01T13:18:00Z,27.2970,-97.4049,0.0,2.1,18.0,2.9,'1111122,1111122,1111122' 
TCOON,ioos:station:TCOON:068:1,2017-12-01T13:24:00Z,27.2970,-97.4049,0.0,2.2,325.0,2.5,'11111222,11111222,11111222' 
TCOON,ioos:station:TCOON:068:1,2017-12-01T13:30:00Z,27.2970,-97.4049,0.0,2.0,337.0,2.5,'11111222,11111222,11111222' 
TCOON,ioos:station:TCOON:068:1,2017-12-01T13:36:00Z,27.2970,-97.4049,0.0,2.4,333.0,2.6,'11111222,11111222,11111222' 
TCOON,ioos:station:TCOON:068:1,2017-12-01T13:42:00Z,27.2970,-97.4049,0.0,2.3,337.0,2.9,'11111222,11111222,11111222' 
TCOON,ioos:station:TCOON:068:1,2017-12-01T13:48:00Z,27.2970,-97.4049,0.0,2.9,330.0,3.6,'11111222,11111222,11111222' 
TCOON,ioos:station:TCOON:068:1,2017-12-01T13:54:00Z,27.2970,-97.4049,0.0,3.5,332.0,4.0,'11111222,11111222,11111222' 
TCOON,ioos:station:TCOON:068:1,2017-12-01T14:00:00Z,27.2970,-97.4049,0.0,3.3,333.0,3.7,'11111222,11111222,11111222' 
TCOON,ioos:station:TCOON:068:1,2017-12-01T14:06:00Z,27.2970,-97.4049,0.0,3.2,336.0,3.8,'11111222,11111222,11111222' 
TCOON,ioos:station:TCOON:068:1,2017-12-01T14:12:00Z,27.2970,-97.4049,0.0,2.8,345.0,3.4,'11111222,11111222,11111222' 
TCOON,ioos:station:TCOON:068:1,2017-12-01T14:18:00Z,27.2970,-97.4049,0.0,2.8,345.0,3.4,'1111122,1111122,1111122' 
TCOON,ioos:station:TCOON:068:1,2017-12-01T14:24:00Z,27.2970,-97.4049,0.0,2.8,345.0,3.4,'11111222,11111222,11111222' 
TCOON,ioos:station:TCOON:068:1,2017-12-01T14:30:00Z,27.2970,-97.4049,0.0,2.6,358.0,3.2,'11111222,11111222,11111222' 
TCOON,ioos:station:TCOON:068:1,2017-12-01T14:36:00Z,27.2970,-97.4049,0.0,2.7,359.0,3.0,'11111222,11111222,11111222' 
TCOON,ioos:station:TCOON:068:1,2017-12-01T14:42:00Z,27.2970,-97.4049,0.0,3.3,358.0,3.5,'11111222,11111222,11111222' 
TCOON,ioos:station:TCOON:068:1,2017-12-01T14:48:00Z,27.2970,-97.4049,0.0,2.8,2.0,3.6,'11111222,11111222,11111222' 
TCOON,ioos:station:TCOON:068:1,2017-12-01T14:54:00Z,27.2970,-97.4049,0.0,2.9,4.0,3.5,'11111222,11111222,11111222' 
TCOON,ioos:station:TCOON:068:1,2017-12-01T15:00:00Z,27.2970,-97.4049,0.0,3.3,2.0,3.8,'11111222,11111222,11111222' 
TCOON,ioos:station:TCOON:068:1,2017-12-01T15:06:00Z,27.2970,-97.4049,0.0,3.2,5.0,3.6,'11111222,11111222,11111222' 
TCOON,ioos:station:TCOON:068:1,2017-12-01T15:12:00Z,27.2970,-97.4049,0.0,3.1,15.0,4.1,'11111222,11111222,11111222' 
TCOON,ioos:station:TCOON:068:1,2017-12-01T15:18:00Z,27.2970,-97.4049,0.0,3.1,15.0,4.1,'1111122,1111122,1111122' 
TCOON,ioos:station:TCOON:068:1,2017-12-01T15:24:00Z,27.2970,-97.4049,0.0,4.1,35.0,5.1,'11111222,11111222,11111222' 
TCOON,ioos:station:TCOON:068:1,2017-12-01T15:30:00Z,27.2970,-97.4049,0.0,4.2,34.0,5.1,'11111222,11111222,11111222' 
TCOON,ioos:station:TCOON:068:1,2017-12-01T15:36:00Z,27.2970,-97.4049,0.0,4.4,46.0,5.0,'11111222,11111222,11111222' 
TCOON,ioos:station:TCOON:068:1,2017-12-01T15:42:00Z,27.2970,-97.4049,0.0,4.2,44.0,5.1,'11111222,11111222,11111222' 
TCOON,ioos:station:TCOON:068:1,2017-12-01T15:48:00Z,27.2970,-97.4049,0.0,4.4,50.0,5.3,'11111222,11111222,11111222' 
TCOON,ioos:station:TCOON:068:1,2017-12-01T15:54:00Z,27.2970,-97.4049,0.0,4.2,49.0,4.9,'11111222,11111222,11111222' 
TCOON,ioos:station:TCOON:068:1,2017-12-01T16:00:00Z,27.2970,-97.4049,0.0,4.7,43.0,5.4,'11111222,11111222,11111222' 
TCOON,ioos:station:TCOON:068:1,2017-12-01T16:06:00Z,27.2970,-97.4049,0.0,4.8,52.0,5.6,'11111222,11111222,11111222' 
TCOON,ioos:station:TCOON:068:1,2017-12-01T16:12:00Z,27.2970,-97.4049,0.0,4.7,51.0,6.0,'11111222,11111222,11111222' 
TCOON,ioos:station:TCOON:068:1,2017-12-01T16:18:00Z,27.2970,-97.4049,0.0,4.7,51.0,6.0,'1111122,1111122,1111122' 
TCOON,ioos:station:TCOON:068:1,2017-12-01T16:24:00Z,27.2970,-97.4049,0.0,4.7,49.0,5.5,'11111222,11111222,11111222' 
TCOON,ioos:station:TCOON:068:1,2017-12-01T16:30:00Z,27.2970,-97.4049,0.0,4.9,48.0,5.6,'11111222,11111222,11111222' 
TCOON,ioos:station:TCOON:068:1,2017-12-01T16:36:00Z,27.2970,-97.4049,0.0,4.7,45.0,5.9,'11111222,11111222,11111222' 
TCOON,ioos:station:TCOON:068:1,2017-12-01T16:42:00Z,27.2970,-97.4049,0.0,4.7,50.0,5.3,'11111222,11111222,11111222' 
TCOON,ioos:station:TCOON:068:1,2017-12-01T16:48:00Z,27.2970,-97.4049,0.0,4.9,53.0,5.8,'11111222,11111222,11111222' 
TCOON,ioos:station:TCOON:068:1,2017-12-01T16:54:00Z,27.2970,-97.4049,0.0,4.5,53.0,5.8,'11111222,11111222,11111222' 
TCOON,ioos:station:TCOON:068:1,2017-12-01T17:00:00Z,27.2970,-97.4049,0.0,4.3,53.0,5.2,'11111222,11111222,11111222' 
TCOON,ioos:station:TCOON:068:1,2017-12-01T17:06:00Z,27.2970,-97.4049,0.0,4.9,50.0,5.4,'11111222,11111222,11111222' 
TCOON,ioos:station:TCOON:068:1,2017-12-01T17:12:00Z,27.2970,-97.4049,0.0,4.6,47.0,5.6,'11111222,11111222,11111222' 
TCOON,ioos:station:TCOON:068:1,2017-12-01T17:18:00Z,27.2970,-97.4049,0.0,4.6,47.0,5.6,'1111122,1111122,1111122' 
TCOON,ioos:station:TCOON:068:1,2017-12-01T17:24:00Z,27.2970,-97.4049,0.0,4.3,47.0,5.6,'11111222,11111222,11111222' 
TCOON,ioos:station:TCOON:068:1,2017-12-01T17:30:00Z,27.2970,-97.4049,0.0,4.7,52.0,5.8,'11111222,11111222,11111222' 
TCOON,ioos:station:TCOON:068:1,2017-12-01T17:36:00Z,27.2970,-97.4049,0.0,4.7,47.0,5.6,'11111222,11111222,11111222' 
TCOON,ioos:station:TCOON:068:1,2017-12-01T17:42:00Z,27.2970,-97.4049,0.0,4.4,52.0,5.1,'11111222,11111222,11111222' 
TCOON,ioos:station:TCOON:068:1,2017-12-01T17:48:00Z,27.2970,-97.4049,0.0,4.4,46.0,5.2,'11111222,11111222,11111222' 
TCOON,ioos:station:TCOON:068:1,2017-12-01T17:54:00Z,27.2970,-97.4049,0.0,4.7,52.0,5.5,'11111222,11111222,11111222' 
TCOON,ioos:station:TCOON:068:1,2017-12-01T18:00:00Z,27.2970,-97.4049,0.0,3.9,49.0,4.9,'11111222,11111222,11111222' 
TCOON,ioos:station:TCOON:068:1,2017-12-01T18:06:00Z,27.2970,-97.4049,0.0,3.8,60.0,4.5,'11111222,11111222,11111222' 
TCOON,ioos:station:TCOON:068:1,2017-12-01T18:12:00Z,27.2970,-97.4049,0.0,3.7,62.0,4.3,'11111222,11111222,11111222' 
TCOON,ioos:station:TCOON:068:1,2017-12-01T18:18:00Z,27.2970,-97.4049,0.0,3.7,62.0,4.3,'1111122,1111122,1111122' 
TCOON,ioos:station:TCOON:068:1,2017-12-01T18:24:00Z,27.2970,-97.4049,0.0,3.7,58.0,4.7,'11111222,11111222,11111222' 
TCOON,ioos:station:TCOON:068:1,2017-12-01T18:30:00Z,27.2970,-97.4049,0.0,3.5,59.0,4.4,'11111222,11111222,11111222' 
TCOON,ioos:station:TCOON:068:1,2017-12-01T18:36:00Z,27.2970,-97.4049,0.0,3.5,59.0,4.3,'11111222,11111222,11111222' 
TCOON,ioos:station:TCOON:068:1,2017-12-01T18:42:00Z,27.2970,-97.4049,0.0,3.6,59.0,4.2,'11111222,11111222,11111222' 
TCOON,ioos:station:TCOON:068:1,2017-12-01T18:48:00Z,27.2970,-97.4049,0.0,3.2,62.0,4.5,'11111222,11111222,11111222' 
TCOON,ioos:station:TCOON:068:1,2017-12-01T18:54:00Z,27.2970,-97.4049,0.0,3.1,60.0,3.7,'11111222,11111222,11111222' 
TCOON,ioos:station:TCOON:068:1,2017-12-01T19:00:00Z,27.2970,-97.4049,0.0,3.7,64.0,4.4,'11111222,11111222,11111222' 
TCOON,ioos:station:TCOON:068:1,2017-12-01T19:06:00Z,27.2970,-97.4049,0.0,3.7,62.0,4.1,'11111222,11111222,11111222' 
TCOON,ioos:station:TCOON:068:1,2017-12-01T19:12:00Z,27.2970,-97.4049,0.0,3.3,59.0,4.1,'11111222,11111222,11111222' 
TCOON,ioos:station:TCOON:068:1,2017-12-01T19:18:00Z,27.2970,-97.4049,0.0,3.3,59.0,4.1,'1111122,1111122,1111122' 
TCOON,ioos:station:TCOON:068:1,2017-12-01T19:24:00Z,27.2970,-97.4049,0.0,3.7,60.0,4.5,'11111222,11111222,11111222' 
TCOON,ioos:station:TCOON:068:1,2017-12-01T19:30:00Z,27.2970,-97.4049,0.0,3.5,61.0,4.4,'11111222,11111222,11111222' 
TCOON,ioos:station:TCOON:068:1,2017-12-01T19:36:00Z,27.2970,-97.4049,0.0,3.7,59.0,4.5,'11111222,11111222,11111222' 
TCOON,ioos:station:TCOON:068:1,2017-12-01T19:42:00Z,27.2970,-97.4049,0.0,3.3,66.0,4.4,'11111222,11111222,11111222' 
TCOON,ioos:station:TCOON:068:1,2017-12-01T19:48:00Z,27.2970,-97.4049,0.0,3.6,77.0,4.7,'11111222,11111222,11111222' 
TCOON,ioos:station:TCOON:068:1,2017-12-01T19:54:00Z,27.2970,-97.4049,0.0,4.0,65.0,4.6,'11111222,11111222,11111222' 
TCOON,ioos:station:TCOON:068:1,2017-12-01T20:00:00Z,27.2970,-97.4049,0.0,4.1,64.0,4.7,'11111222,11111222,11111222' 
TCOON,ioos:station:TCOON:068:1,2017-12-01T20:06:00Z,27.2970,-97.4049,0.0,4.3,63.0,4.9,'11111222,11111222,11111222' 
TCOON,ioos:station:TCOON:068:1,2017-12-01T20:12:00Z,27.2970,-97.4049,0.0,3.8,76.0,4.9,'11111222,11111222,11111222' 
TCOON,ioos:station:TCOON:068:1,2017-12-01T20:18:00Z,27.2970,-97.4049,0.0,3.8,76.0,4.9,'1111122,1111122,1111122' 
TCOON,ioos:station:TCOON:068:1,2017-12-01T20:24:00Z,27.2970,-97.4049,0.0,4.1,70.0,4.6,'11111222,11111222,11111222' 
TCOON,ioos:station:TCOON:068:1,2017-12-01T20:30:00Z,27.2970,-97.4049,0.0,4.0,68.0,4.7,'11111222,11111222,11111222' 